loading
|
Showing default

FTV 3502, 369

Orbit data source: Space-Track

FTV 3502, 369 is a payload satellite owned by SAFSP (US) in SSO that was launched on Thu, 23 Aug 1962 UTC via an SCOUT X-2M launch vehicle from the Air Force Western Test Range (AFWTR). Payloads include a variety of satellites, spacecraft, and rockets equipped with specific instruments for various scientific and technological missions. These include communications satellites like Starlink; space stations such as the ISS; scientific satellites like the Hubble; Earth observation satellites from companies like Planet Labs, Umbra, and HawkEye 360; GPS; miniature CubeSats for education and research; and military/defense satellites.

Loading next visibility...
Loading greatness...
FTV 3502 details
Identifier
369, 1962-039A
Orbit
SSO
Last TLE update11 hours ago
Origin
Flag of USSAFSP (US)
ManufacturerRCA/East Windsor
Mission statusUnknown
MissionDefense Weather
Bus & MotorP35, Unknown motor
Mass50 kg wet, 50 kg dry
Launch date (UTC)
1962-08-23 (62 years ago)
Launch vehicle
SCOUT X-2M
Launch site
Air Force Western Test Range (AFWTR)
Object type
Payload
Rocket body
Debris
Radar Cross Section0.41 m², Medium (>0.1 m² and < 1m²)

Expand to show TLE details & history

TLE from 11 hours ago
0 FTV 3502
1 00369U 62039A   24258.83631906  .00005403  00000-0  54802-3 0  9999
2 00369  98.5389 283.8270 0085464  48.4311 312.4190 14.88648778320208
Epoch: 2024-09-14T20:04Z
Definitive object data (Epoch: 2024-09-14T20:04:17.966Z)
Latitude-0.00004°
Longitude-11.53617°
Altitude565.201 km
Speed7.6 km/s
True Right ascension18h 55m 18s
True Declination0° 00' 00"
Sunlit
Object was in daylight at TLE epoch
Predictive object data (real-time)
Latitude6.60167°
Longitude-12.0182°
Altitude558.723 km
Speed7.607 km/s
Apparent Right ascension16h 15m 34s
Apparent Declination-23° 33' 40"
Sunlit
Object is in daylight
Predictive observer data (real-time)
Local Sidereal Time00:02:07
Azimuth267.004° W
Elevation-34.869°
Doppler factor1
Orbital elements
Apogee658.846 km
Perigee539.584 km
Semi-major axis6,977.352 km
Eccentricity0.0085464
Inclination98.5389°
RAAN283.827°
Arg. of periapsis48.4311°
True anomaly311.69079°
Mean anomaly312.419°
Eccentric anomaly312.05542°
Mean motion3.72398 °/min
BSTAR0.00054802
Period96.67 mins
No data available

FTV 3502 Visibility forecast

Observer location: 39.9160978°, -105.1181434

FTV 3502 is not visible in the next 10 days
Span
Click to sort rows by Start time (UTC) header in descending order
Start Az.
Max El. time (UTC)
Max El. Az.
Max El.
End time (UTC)
End Az.